Tracking 25963 objects as of 12-Aug-2022
HD Live streaming from Space Station
objects crossing your sky now

BRIO

Track BRIO now!
10-day predictions


NORAD ID: 43813
Int'l Code: 2018-099BH
Perigee: 569.2 km
Apogee: 589.2 km
Inclination: 97.6 °
Period: 96.1 minutes
Semi major axis: 6950 km
RCS: Unknown
Launch date: December 3, 2018
Source: United States (US)
Launch site: AIR FORCE WESTERN TEST RANGE (AFWTR)
aabbcc
Your satellite tracking list
Your tracking list is empty




NASA's NSSDC Master Catalog

Two Line Element Set (TLE):
1 43813U 18099BH  22224.19704378  .00002902  00000-0  24809-3 0  9996
2 43813  97.6338 292.9211 0014427  72.9501 287.3301 14.98325061201168
Source of the keplerian elements: AFSPC